5BMCB LCEN-LCEN

Flight info

Callsign 5BMCB
Flight time 2h 43m
Altitude 1500
Route VFR
Aircraft C172/L-V/N

Departure

Time 2026-04-29 16:27
Airport Ercan International Airport (LCEN)

Arrival

Time 2026-04-29 19:11
Airport Ercan International Airport (LCEN)
Time Latitude Longitude Altitude Speed Heading
2026-04-29 15:43 35.15212 33.49563 403 ft 0 kts 202°
2026-04-29 16:20 35.15210 33.49565 403 ft 1 kts 79°
2026-04-29 16:20 35.15244 33.49587 403 ft 9 kts 31°
2026-04-29 16:20 35.15275 33.49666 403 ft 10 kts 118°
2026-04-29 16:21 35.15236 33.49759 403 ft 13 kts 98°
2026-04-29 16:21 35.15234 33.49799 403 ft 0 kts 110°
2026-04-29 16:21 35.15229 33.49810 403 ft 5 kts 124°
2026-04-29 16:21 35.15197 33.49895 403 ft 16 kts 111°
2026-04-29 16:22 35.15150 33.50036 403 ft 15 kts 108°
2026-04-29 16:22 35.15105 33.50179 403 ft 18 kts 118°
2026-04-29 16:22 35.15051 33.50338 403 ft 21 kts 106°
2026-04-29 16:22 35.14991 33.50525 403 ft 22 kts 112°
2026-04-29 16:23 35.14977 33.50612 402 ft 4 kts 62°
2026-04-29 16:23 35.14993 33.50630 402 ft 3 kts 31°
2026-04-29 16:23 35.15024 33.50653 402 ft 6 kts 22°
2026-04-29 16:23 35.15052 33.50664 402 ft 0 kts 21°
2026-04-29 16:25 35.15071 33.50674 402 ft 8 kts 27°
2026-04-29 16:25 35.15120 33.50748 402 ft 15 kts 102°
2026-04-29 16:25 35.15068 33.50911 402 ft 24 kts 112°
2026-04-29 16:26 35.15007 33.51105 402 ft 21 kts 114°
2026-04-29 16:26 35.14935 33.51265 402 ft 12 kts 110°
2026-04-29 16:26 35.14955 33.51257 402 ft 16 kts 287°
2026-04-29 16:26 35.15065 33.50925 403 ft 64 kts 292°
2026-04-29 16:27 35.15232 33.50391 531 ft 69 kts 291°
2026-04-29 16:27 35.15367 33.50001 619 ft 74 kts 292°
2026-04-29 16:27 35.15541 33.49432 812 ft 73 kts 289°
2026-04-29 16:27 35.15773 33.48629 1035 ft 76 kts 291°
2026-04-29 16:28 35.15958 33.48021 1205 ft 77 kts 291°
2026-04-29 16:28 35.16136 33.47402 1369 ft 78 kts 300°
2026-04-29 16:28 35.16427 33.46831 1497 ft 84 kts 304°
2026-04-29 16:28 35.16657 33.46412 1518 ft 93 kts 306°
2026-04-29 16:29 35.17186 33.45468 1518 ft 103 kts 307°
2026-04-29 16:29 35.17591 33.44746 1513 ft 100 kts 306°
2026-04-29 16:29 35.17851 33.44279 1513 ft 99 kts 306°
2026-04-29 16:29 35.18356 33.43362 1513 ft 97 kts 307°
2026-04-29 16:30 35.18729 33.42680 1515 ft 96 kts 307°
2026-04-29 16:30 35.19105 33.41991 1518 ft 96 kts 307°
2026-04-29 16:30 35.19349 33.41545 1518 ft 96 kts 306°
2026-04-29 16:30 35.19843 33.40641 1519 ft 95 kts 306°
2026-04-29 16:31 35.20091 33.40188 1519 ft 95 kts 306°
2026-04-29 16:31 35.20581 33.39289 1516 ft 95 kts 305°
2026-04-29 16:31 35.20949 33.38613 1516 ft 95 kts 306°
2026-04-29 16:31 35.21323 33.37936 1521 ft 94 kts 309°
2026-04-29 16:32 35.21885 33.37648 1548 ft 91 kts 11°
2026-04-29 16:32 35.22195 33.37979 1548 ft 95 kts 66°
2026-04-29 16:32 35.21770 33.38830 1528 ft 105 kts 166°
2026-04-29 16:32 35.21215 33.38420 1518 ft 99 kts 263°
2026-04-29 16:33 35.21644 33.36845 1492 ft 95 kts 302°
2026-04-29 16:33 35.21853 33.36398 1547 ft 90 kts 303°
2026-04-29 16:33 35.22438 33.35566 1501 ft 93 kts 313°
2026-04-29 16:34 35.22821 33.34911 1476 ft 98 kts 304°
2026-04-29 16:34 35.23177 33.34203 1488 ft 95 kts 305°
2026-04-29 16:34 35.23418 33.33755 1504 ft 94 kts 301°
2026-04-29 16:34 35.23723 33.32749 1517 ft 96 kts 287°
2026-04-29 16:35 35.23833 33.32219 1517 ft 96 kts 286°
2026-04-29 16:35 35.24057 33.31153 1518 ft 97 kts 286°
2026-04-29 16:35 35.24229 33.30350 1517 ft 97 kts 285°
2026-04-29 16:35 35.24410 33.29542 1517 ft 97 kts 285°
2026-04-29 16:36 35.24540 33.29010 1515 ft 96 kts 289°
2026-04-29 16:36 35.24966 33.28105 1414 ft 92 kts 311°
2026-04-29 16:36 35.25277 33.27745 1315 ft 87 kts 324°
2026-04-29 16:36 35.25934 33.27345 1119 ft 68 kts 341°
2026-04-29 16:37 35.26368 33.27180 940 ft 65 kts 343°
2026-04-29 16:37 35.26792 33.27031 806 ft 62 kts 343°
2026-04-29 16:37 35.27177 33.26897 767 ft 48 kts 342°
2026-04-29 16:37 35.27442 33.26803 787 ft 67 kts 343°
2026-04-29 16:38 35.28058 33.26622 996 ft 70 kts 345°
2026-04-29 16:38 35.28373 33.26209 1155 ft 78 kts 267°
2026-04-29 16:38 35.28003 33.25744 1283 ft 87 kts 180°
2026-04-29 16:38 35.27392 33.25938 1356 ft 92 kts 159°
2026-04-29 16:39 35.26978 33.26109 1375 ft 95 kts 158°
2026-04-29 16:39 35.26330 33.26336 1406 ft 97 kts 165°
2026-04-29 16:39 35.25659 33.26429 1455 ft 95 kts 187°
2026-04-29 16:39 35.25020 33.26199 1487 ft 97 kts 199°
2026-04-29 16:40 35.24372 33.25929 1510 ft 99 kts 198°
2026-04-29 16:40 35.23713 33.25669 1558 ft 98 kts 196°
2026-04-29 16:40 35.23047 33.25423 1584 ft 100 kts 195°
2026-04-29 16:40 35.22378 33.25161 1618 ft 100 kts 202°
2026-04-29 16:41 35.21587 33.24531 1609 ft 104 kts 219°
2026-04-29 16:41 35.21185 33.24182 1594 ft 106 kts 211°
2026-04-29 16:41 35.20537 33.23768 1649 ft 102 kts 205°
2026-04-29 16:41 35.19681 33.23215 1621 ft 107 kts 204°
2026-04-29 16:42 35.19197 33.23054 1617 ft 106 kts 185°
2026-04-29 16:42 35.18472 33.23135 1539 ft 106 kts 151°
2026-04-29 16:42 35.17974 33.23743 1427 ft 97 kts 123°
2026-04-29 16:42 35.17567 33.24331 1367 ft 84 kts 144°
2026-04-29 16:43 35.16993 33.24376 1302 ft 88 kts 199°
2026-04-29 16:43 35.16478 33.23909 1171 ft 90 kts 233°
2026-04-29 16:43 35.16369 33.23209 1002 ft 80 kts 281°
2026-04-29 16:43 35.16584 33.22622 804 ft 71 kts 304°
2026-04-29 16:44 35.16798 33.22179 767 ft 56 kts 297°
2026-04-29 16:44 35.17115 33.21463 863 ft 80 kts 298°
2026-04-29 16:44 35.17302 33.21055 975 ft 82 kts 302°
2026-04-29 16:44 35.17857 33.20730 1187 ft 78 kts 38°
2026-04-29 16:45 35.17842 33.21375 1268 ft 93 kts 116°
2026-04-29 16:45 35.17626 33.21827 1266 ft 90 kts 115°
2026-04-29 16:45 35.17348 33.22512 1195 ft 88 kts 110°
2026-04-29 16:45 35.17115 33.23207 1113 ft 87 kts 108°
2026-04-29 16:46 35.16737 33.23680 1095 ft 78 kts 174°
2026-04-29 16:46 35.16419 33.23261 1020 ft 76 kts 268°
2026-04-29 16:46 35.16553 33.22680 837 ft 69 kts 305°
2026-04-29 16:46 35.16773 33.22234 767 ft 51 kts 299°
2026-04-29 16:47 35.17078 33.21561 875 ft 75 kts 295°
2026-04-29 16:47 35.17139 33.21130 942 ft 84 kts 274°
2026-04-29 16:47 35.17004 33.20497 1152 ft 81 kts 208°
2026-04-29 16:47 35.16516 33.20629 1285 ft 81 kts 113°
2026-04-29 16:48 35.16247 33.21583 1355 ft 94 kts 103°
2026-04-29 16:48 35.16108 33.22112 1368 ft 99 kts 105°
2026-04-29 16:48 35.15865 33.23130 1552 ft 95 kts 106°
2026-04-29 16:48 35.15728 33.23653 1540 ft 96 kts 100°
2026-04-29 16:49 35.15591 33.24445 1533 ft 93 kts 98°
2026-04-29 16:49 35.15463 33.25210 1530 ft 90 kts 98°
2026-04-29 16:49 35.15340 33.25952 1531 ft 89 kts 98°
2026-04-29 16:49 35.15219 33.26688 1528 ft 87 kts 98°
2026-04-29 16:50 35.15103 33.27412 1528 ft 86 kts 98°
2026-04-29 16:50 35.14984 33.28139 1529 ft 86 kts 98°
2026-04-29 16:50 35.14865 33.28847 1531 ft 86 kts 98°
2026-04-29 16:50 35.14740 33.29574 1526 ft 87 kts 97°
2026-04-29 16:51 35.14610 33.30300 1525 ft 88 kts 98°
2026-04-29 16:51 35.14479 33.31026 1526 ft 88 kts 98°
2026-04-29 16:51 35.14344 33.31769 1525 ft 88 kts 98°
2026-04-29 16:51 35.14390 33.32481 1528 ft 84 kts 57°
2026-04-29 16:52 35.14833 33.32899 1530 ft 82 kts 14°
2026-04-29 16:52 35.15403 33.33002 1527 ft 83 kts
2026-04-29 16:52 35.15983 33.33056 1525 ft 83 kts
2026-04-29 16:52 35.16560 33.33057 1524 ft 83 kts 355°
2026-04-29 16:53 35.17144 33.32965 1522 ft 84 kts 352°
2026-04-29 16:53 35.17721 33.32842 1523 ft 83 kts 351°
2026-04-29 16:53 35.18297 33.32714 1525 ft 83 kts 351°
2026-04-29 16:53 35.18867 33.32586 1524 ft 83 kts 351°
2026-04-29 16:54 35.19440 33.32456 1531 ft 83 kts 351°
2026-04-29 16:54 35.20013 33.32326 1658 ft 84 kts 350°
2026-04-29 16:54 35.20591 33.32201 1777 ft 84 kts 350°
2026-04-29 16:54 35.21179 33.32083 1899 ft 85 kts 350°
2026-04-29 16:55 35.21766 33.31976 2017 ft 85 kts 350°
2026-04-29 16:55 35.22359 33.31872 2138 ft 86 kts 350°
2026-04-29 16:55 35.22951 33.31773 2257 ft 86 kts 350°
2026-04-29 16:55 35.23549 33.31686 2376 ft 86 kts 351°
2026-04-29 16:56 35.24150 33.31632 2488 ft 87 kts 355°
2026-04-29 16:56 35.24790 33.31623 2519 ft 96 kts 358°
2026-04-29 16:56 35.25497 33.31633 2522 ft 104 kts 359°
2026-04-29 16:56 35.26235 33.31654 2520 ft 109 kts 360°
2026-04-29 16:57 35.27008 33.31683 2516 ft 111 kts 360°
2026-04-29 16:57 35.27790 33.31710 2512 ft 110 kts 360°
2026-04-29 16:57 35.28550 33.31739 2504 ft 108 kts
2026-04-29 16:57 35.29547 33.31774 2486 ft 105 kts
2026-04-29 16:58 35.30027 33.31792 2521 ft 104 kts
2026-04-29 16:58 35.30763 33.31817 2517 ft 105 kts
2026-04-29 16:58 35.31290 33.31835 2510 ft 105 kts
2026-04-29 16:58 35.31923 33.31855 2507 ft 107 kts
2026-04-29 16:59 35.32678 33.31882 2508 ft 109 kts 359°
2026-04-29 16:59 35.33427 33.31794 2508 ft 108 kts 333°
2026-04-29 16:59 35.33932 33.31120 2514 ft 110 kts 291°
2026-04-29 16:59 35.34117 33.30197 2510 ft 113 kts 278°
2026-04-29 17:00 35.34232 33.29245 2509 ft 113 kts 277°
2026-04-29 17:00 35.34327 33.28287 2509 ft 113 kts 277°
2026-04-29 17:00 35.34417 33.27315 2512 ft 113 kts 277°
2026-04-29 17:00 35.34501 33.26363 2513 ft 113 kts 277°
2026-04-29 17:01 35.34584 33.25399 2512 ft 113 kts 277°
2026-04-29 17:01 35.34664 33.24437 2510 ft 113 kts 277°
2026-04-29 17:01 35.34743 33.23480 2510 ft 112 kts 277°
2026-04-29 17:01 35.34822 33.22524 2511 ft 113 kts 276°
2026-04-29 17:02 35.34901 33.21570 2510 ft 114 kts 276°
2026-04-29 17:02 35.34982 33.20594 2514 ft 115 kts 275°
2026-04-29 17:02 35.35064 33.19605 2510 ft 116 kts 275°
2026-04-29 17:02 35.35144 33.18617 2513 ft 118 kts 275°
2026-04-29 17:03 35.35225 33.17609 2509 ft 118 kts 275°
2026-04-29 17:03 35.35291 33.16611 2522 ft 117 kts 275°
2026-04-29 17:03 35.35291 33.15611 2514 ft 118 kts 269°
2026-04-29 17:03 35.35293 33.14600 2511 ft 118 kts 273°
2026-04-29 17:04 35.35354 33.13607 2545 ft 114 kts 277°
2026-04-29 17:04 35.35447 33.12654 2577 ft 114 kts 277°
2026-04-29 17:04 35.35496 33.11676 2543 ft 118 kts 275°
2026-04-29 17:04 35.35496 33.10660 2550 ft 117 kts 270°
2026-04-29 17:05 35.35504 33.09681 2528 ft 116 kts 274°
2026-04-29 17:05 35.35593 33.08689 2517 ft 114 kts 281°
2026-04-29 17:05 35.35774 33.07736 2478 ft 115 kts 286°
2026-04-29 17:05 35.35992 33.06785 2440 ft 115 kts 287°
2026-04-29 17:06 35.36239 33.05856 2455 ft 112 kts 286°
2026-04-29 17:06 35.36422 33.04902 2411 ft 115 kts 283°
2026-04-29 17:06 35.36648 33.03966 2413 ft 114 kts 290°
2026-04-29 17:06 35.36913 33.03070 2469 ft 109 kts 285°
2026-04-29 17:07 35.37019 33.02162 2470 ft 111 kts 277°
2026-04-29 17:07 35.37166 33.01224 2464 ft 111 kts 288°
2026-04-29 17:07 35.37459 33.00345 2463 ft 111 kts 294°
2026-04-29 17:07 35.37779 32.99475 2439 ft 112 kts 298°
2026-04-29 17:08 35.38127 32.98622 2449 ft 110 kts 296°
2026-04-29 17:08 35.38463 32.97780 2434 ft 112 kts 297°
2026-04-29 17:08 35.38649 32.96872 2440 ft 112 kts 265°
2026-04-29 17:08 35.38273 32.96026 2388 ft 118 kts 222°
2026-04-29 17:09 35.37519 32.95598 2361 ft 118 kts 192°
2026-04-29 17:09 35.36786 32.95567 2570 ft 99 kts 169°
2026-04-29 17:09 35.36052 32.95632 2469 ft 109 kts 178°
2026-04-29 17:09 35.35278 32.95489 2355 ft 115 kts 191°
2026-04-29 17:10 35.34514 32.95221 2271 ft 113 kts 199°
2026-04-29 17:10 35.33772 32.94808 2108 ft 117 kts 207°
2026-04-29 17:10 35.33098 32.94270 1937 ft 116 kts 218°
2026-04-29 17:10 35.32407 32.93772 1738 ft 116 kts 196°
2026-04-29 17:11 35.31593 32.93685 1489 ft 119 kts 179°
2026-04-29 17:11 35.30798 32.93685 1386 ft 112 kts 184°
2026-04-29 17:11 35.30049 32.93602 1306 ft 106 kts 184°
2026-04-29 17:11 35.29338 32.93554 1273 ft 99 kts 186°
2026-04-29 17:12 35.28700 32.93457 1338 ft 87 kts 186°
2026-04-29 17:12 35.28109 32.93346 1414 ft 86 kts 188°
2026-04-29 17:12 35.27507 32.93213 1467 ft 90 kts 189°
2026-04-29 17:12 35.27081 32.93115 1475 ft 94 kts 187°
2026-04-29 17:13 35.26201 32.92963 1528 ft 96 kts 187°
2026-04-29 17:13 35.25538 32.92786 1574 ft 96 kts 192°
2026-04-29 17:13 35.24881 32.92574 1602 ft 99 kts 193°
2026-04-29 17:13 35.24224 32.92359 1646 ft 98 kts 192°
2026-04-29 17:14 35.23524 32.92160 1612 ft 105 kts 192°
2026-04-29 17:14 35.22798 32.91971 1600 ft 107 kts 192°
2026-04-29 17:14 35.22062 32.91767 1582 ft 107 kts 194°
2026-04-29 17:14 35.21354 32.91487 1584 ft 106 kts 200°
2026-04-29 17:15 35.20649 32.91164 1562 ft 107 kts 199°
2026-04-29 17:15 35.19971 32.90802 1570 ft 106 kts 204°
2026-04-29 17:15 35.19319 32.90391 1613 ft 100 kts 211°
2026-04-29 17:15 35.18773 32.89884 1661 ft 98 kts 213°
2026-04-29 17:16 35.18178 32.89457 1667 ft 101 kts 212°
2026-04-29 17:16 35.17636 32.88876 1657 ft 104 kts 228°
2026-04-29 17:16 35.17185 32.88179 1655 ft 105 kts 225°
2026-04-29 17:16 35.16680 32.87535 1667 ft 104 kts 230°
2026-04-29 17:17 35.16264 32.86781 1639 ft 106 kts 238°
2026-04-29 17:17 35.15875 32.86020 1642 ft 105 kts 228°
2026-04-29 17:17 35.15382 32.85347 1607 ft 107 kts 232°
2026-04-29 17:17 35.15002 32.84574 1600 ft 105 kts 249°
2026-04-29 17:18 35.14861 32.83703 1563 ft 107 kts 265°
2026-04-29 17:18 35.14840 32.82789 1538 ft 107 kts 271°
2026-04-29 17:18 35.14952 32.81906 1520 ft 105 kts 296°
2026-04-29 17:18 35.15328 32.81150 1549 ft 99 kts 298°
2026-04-29 17:19 35.15607 32.80383 1554 ft 101 kts 291°
2026-04-29 17:19 35.15865 32.79570 1528 ft 104 kts 292°
2026-04-29 17:19 35.16133 32.78743 1516 ft 103 kts 291°
2026-04-29 17:19 35.16386 32.77925 1518 ft 103 kts 291°
2026-04-29 17:20 35.16642 32.77106 1519 ft 102 kts 291°
2026-04-29 17:20 35.16893 32.76293 1519 ft 102 kts 290°
2026-04-29 17:20 35.17146 32.75474 1518 ft 102 kts 291°
2026-04-29 17:20 35.17397 32.74663 1516 ft 102 kts 291°
2026-04-29 17:21 35.17650 32.73845 1517 ft 102 kts 291°
2026-04-29 17:21 35.17899 32.73035 1517 ft 102 kts 291°
2026-04-29 17:21 35.18154 32.72208 1519 ft 105 kts 291°
2026-04-29 17:21 35.18411 32.71350 1518 ft 108 kts 287°
2026-04-29 17:22 35.18586 32.70453 1516 ft 110 kts 282°
2026-04-29 17:22 35.18748 32.69510 1516 ft 115 kts 282°
2026-04-29 17:22 35.18910 32.68539 1512 ft 118 kts 282°
2026-04-29 17:22 35.19076 32.67556 1511 ft 118 kts 283°
2026-04-29 17:23 35.19239 32.66571 1511 ft 119 kts 282°
2026-04-29 17:23 35.19399 32.65581 1511 ft 119 kts 282°
2026-04-29 17:23 35.19381 32.64574 1513 ft 118 kts 257°
2026-04-29 17:23 35.19109 32.63625 1506 ft 119 kts 250°
2026-04-29 17:24 35.18802 32.62683 1502 ft 119 kts 249°
2026-04-29 17:24 35.18496 32.61744 1502 ft 120 kts 249°
2026-04-29 17:24 35.18187 32.60789 1498 ft 120 kts 249°
2026-04-29 17:24 35.17884 32.59841 1496 ft 120 kts 249°
2026-04-29 17:25 35.17578 32.58888 1499 ft 120 kts 249°
2026-04-29 17:25 35.17272 32.57928 1499 ft 120 kts 249°
2026-04-29 17:25 35.16966 32.56975 1501 ft 120 kts 249°
2026-04-29 17:25 35.16659 32.56015 1501 ft 120 kts 249°
2026-04-29 17:26 35.16327 32.55086 1498 ft 121 kts 238°
2026-04-29 17:26 35.15832 32.54243 1499 ft 121 kts 232°
2026-04-29 17:26 35.15324 32.53415 1501 ft 121 kts 232°
2026-04-29 17:26 35.14822 32.52592 1501 ft 121 kts 232°
2026-04-29 17:27 35.14206 32.51898 1503 ft 119 kts 214°
2026-04-29 17:27 35.13463 32.51455 1503 ft 119 kts 198°
2026-04-29 17:27 35.12671 32.51165 1502 ft 119 kts 197°
2026-04-29 17:27 35.11872 32.50885 1501 ft 119 kts 196°
2026-04-29 17:28 35.11092 32.50544 1496 ft 119 kts 210°
2026-04-29 17:28 35.10400 32.49988 1502 ft 119 kts 214°
2026-04-29 17:28 35.09715 32.49403 1502 ft 120 kts 215°
2026-04-29 17:28 35.09029 32.48817 1503 ft 120 kts 216°
2026-04-29 17:29 35.08336 32.48230 1504 ft 120 kts 215°
2026-04-29 17:29 35.07650 32.47648 1504 ft 120 kts 215°
2026-04-29 17:29 35.06970 32.47073 1504 ft 119 kts 215°
2026-04-29 17:29 35.06279 32.46487 1505 ft 119 kts 215°
2026-04-29 17:30 35.05602 32.45918 1505 ft 119 kts 215°
2026-04-29 17:30 35.04941 32.45366 1638 ft 109 kts 215°
2026-04-29 17:30 35.04332 32.44863 1793 ft 103 kts 214°
2026-04-29 17:30 35.03751 32.44382 1947 ft 99 kts 215°
2026-04-29 17:31 35.03187 32.43911 2108 ft 96 kts 214°
2026-04-29 17:31 35.02650 32.43454 2263 ft 94 kts 214°
2026-04-29 17:31 35.02111 32.42990 2431 ft 93 kts 214°
2026-04-29 17:31 35.01514 32.42746 2603 ft 91 kts 185°
2026-04-29 17:32 35.00884 32.42669 2771 ft 90 kts 183°
2026-04-29 17:32 35.00262 32.42604 2937 ft 90 kts 183°
2026-04-29 17:32 34.99639 32.42540 3104 ft 89 kts 182°
2026-04-29 17:32 34.99021 32.42475 3271 ft 88 kts 182°
2026-04-29 17:33 34.98408 32.42411 3437 ft 88 kts 182°
2026-04-29 17:33 34.97759 32.42344 3505 ft 97 kts 183°
2026-04-29 17:33 34.97052 32.42266 3508 ft 107 kts 184°
2026-04-29 17:33 34.96289 32.42176 3508 ft 112 kts 184°
2026-04-29 17:34 34.95492 32.42081 3500 ft 115 kts 184°
2026-04-29 17:34 34.94688 32.41987 3499 ft 116 kts 184°
2026-04-29 17:34 34.93866 32.41893 3494 ft 117 kts 184°
2026-04-29 17:34 34.93056 32.41802 3495 ft 117 kts 184°
2026-04-29 17:35 34.91690 32.41651 3495 ft 118 kts 184°
2026-04-29 17:35 34.90593 32.41531 3492 ft 118 kts 184°
2026-04-29 17:35 34.89764 32.41441 3495 ft 118 kts 184°
2026-04-29 17:36 34.88934 32.41352 3492 ft 119 kts 184°
2026-04-29 17:36 34.88121 32.41265 3494 ft 118 kts 183°
2026-04-29 17:36 34.87292 32.41177 3494 ft 118 kts 183°
2026-04-29 17:36 34.86466 32.41089 3492 ft 118 kts 184°
2026-04-29 17:37 34.85656 32.41003 3491 ft 117 kts 184°
2026-04-29 17:37 34.84837 32.40916 3493 ft 117 kts 184°
2026-04-29 17:37 34.84014 32.40829 3493 ft 117 kts 184°
2026-04-29 17:37 34.83201 32.40743 3493 ft 117 kts 184°
2026-04-29 17:38 34.82388 32.40657 3491 ft 118 kts 184°
2026-04-29 17:38 34.81563 32.40569 3490 ft 118 kts 184°
2026-04-29 17:38 34.80737 32.40482 3490 ft 118 kts 184°
2026-04-29 17:38 34.79914 32.40395 3489 ft 119 kts 184°
2026-04-29 17:39 34.79084 32.40306 3490 ft 119 kts 184°
2026-04-29 17:39 34.78251 32.40218 3491 ft 119 kts 184°
2026-04-29 17:39 34.77427 32.40131 3489 ft 119 kts 184°
2026-04-29 17:39 34.76634 32.40335 3492 ft 117 kts 144°
2026-04-29 17:40 34.76030 32.40985 3497 ft 108 kts 138°
2026-04-29 17:40 34.75462 32.41580 3210 ft 113 kts 141°
2026-04-29 17:40 34.74773 32.42164 2739 ft 123 kts 148°
2026-04-29 17:40 34.74152 32.42851 2336 ft 117 kts 133°
2026-04-29 17:41 34.73589 32.43581 1642 ft 126 kts 120°
2026-04-29 17:41 34.73119 32.44429 1089 ft 120 kts 106°
2026-04-29 17:41 34.72779 32.45312 627 ft 114 kts 116°
2026-04-29 17:41 34.72512 32.46172 350 ft 103 kts 112°
2026-04-29 17:42 34.72274 32.46961 124 ft 96 kts 111°
2026-04-29 17:42 34.72063 32.47656 44 ft 77 kts 111°
2026-04-29 17:42 34.71900 32.48208 41 ft 73 kts 111°
2026-04-29 17:42 34.71690 32.48876 155 ft 88 kts 110°
2026-04-29 17:43 34.71461 32.49557 354 ft 86 kts 108°
2026-04-29 17:43 34.71251 32.50226 562 ft 84 kts 108°
2026-04-29 17:43 34.71053 32.50901 724 ft 87 kts 107°
2026-04-29 17:43 34.70851 32.51584 935 ft 82 kts 106°
2026-04-29 17:44 34.70668 32.52231 1137 ft 81 kts 104°
2026-04-29 17:44 34.70497 32.52885 1313 ft 82 kts 104°
2026-04-29 17:44 34.70325 32.53552 1498 ft 82 kts 104°
2026-04-29 17:44 34.70157 32.54214 1673 ft 83 kts 104°
2026-04-29 17:45 34.69988 32.54884 1849 ft 82 kts 103°
2026-04-29 17:45 34.69813 32.55549 2025 ft 82 kts 104°
2026-04-29 17:45 34.69642 32.56213 2196 ft 82 kts 104°
2026-04-29 17:45 34.69467 32.56865 2378 ft 81 kts 104°
2026-04-29 17:46 34.69292 32.57521 2561 ft 80 kts 105°
2026-04-29 17:46 34.69122 32.58163 2739 ft 79 kts 104°
2026-04-29 17:46 34.68955 32.58796 2917 ft 78 kts 104°
2026-04-29 17:46 34.68791 32.59418 3097 ft 76 kts 104°
2026-04-29 17:47 34.68637 32.60028 3276 ft 75 kts 104°
2026-04-29 17:47 34.68493 32.60628 3459 ft 73 kts 103°
2026-04-29 17:47 34.68357 32.61209 3641 ft 71 kts 104°
2026-04-29 17:47 34.68222 32.61806 3767 ft 77 kts 104°
2026-04-29 17:48 34.68090 32.62456 3891 ft 82 kts 91°
2026-04-29 17:48 34.68084 32.63170 4013 ft 86 kts 88°
2026-04-29 17:48 34.68086 32.63916 4132 ft 90 kts 88°
2026-04-29 17:48 34.68085 32.64686 4249 ft 92 kts 89°
2026-04-29 17:49 34.68080 32.65471 4364 ft 94 kts 89°
2026-04-29 17:49 34.68072 32.66271 4480 ft 95 kts 89°
2026-04-29 17:49 34.68062 32.67073 4595 ft 95 kts 89°
2026-04-29 17:49 34.68051 32.67883 4709 ft 95 kts 90°
2026-04-29 17:50 34.68039 32.68692 4825 ft 95 kts 90°
2026-04-29 17:50 34.68027 32.69501 4940 ft 95 kts 89°
2026-04-29 17:50 34.68015 32.70306 5057 ft 95 kts 90°
2026-04-29 17:50 34.68002 32.71099 5173 ft 95 kts 90°
2026-04-29 17:51 34.67989 32.71910 5287 ft 95 kts 90°
2026-04-29 17:51 34.67977 32.72714 5403 ft 95 kts 90°
2026-04-29 17:51 34.67964 32.73510 5520 ft 95 kts 91°
2026-04-29 17:51 34.67950 32.74321 5636 ft 95 kts 91°
2026-04-29 17:52 34.67936 32.75117 5751 ft 95 kts 91°
2026-04-29 17:52 34.67923 32.75917 5864 ft 94 kts 90°
2026-04-29 17:52 34.67909 32.76710 5981 ft 94 kts 90°
2026-04-29 17:52 34.67895 32.77502 6092 ft 93 kts 90°
2026-04-29 17:53 34.67882 32.78286 6212 ft 92 kts 90°
2026-04-29 17:53 34.67868 32.79062 6328 ft 92 kts 90°
2026-04-29 17:53 34.67855 32.79841 6446 ft 92 kts 90°
2026-04-29 17:53 34.67842 32.80618 6564 ft 92 kts 90°
2026-04-29 17:54 34.67829 32.81393 6683 ft 91 kts 90°
2026-04-29 17:54 34.67816 32.82161 6803 ft 91 kts 90°
2026-04-29 17:54 34.67803 32.82934 6923 ft 92 kts 90°
2026-04-29 17:54 34.67790 32.83709 7045 ft 91 kts 90°
2026-04-29 17:55 34.67776 32.84487 7167 ft 91 kts 90°
2026-04-29 17:55 34.67762 32.85254 7287 ft 91 kts 90°
2026-04-29 17:55 34.67749 32.86018 7407 ft 91 kts 90°
2026-04-29 17:55 34.67735 32.86797 7500 ft 94 kts 90°
2026-04-29 17:56 34.67719 32.87629 7515 ft 102 kts 90°
2026-04-29 17:56 34.67699 32.88517 7511 ft 108 kts 91°
2026-04-29 17:56 34.67686 32.89439 7510 ft 111 kts 84°
2026-04-29 17:56 34.68067 32.90226 7514 ft 113 kts 37°
2026-04-29 17:57 34.68826 32.90523 7515 ft 116 kts 10°
2026-04-29 17:57 34.69632 32.90646 7511 ft 117 kts
2026-04-29 17:57 34.70441 32.90755 7510 ft 116 kts
2026-04-29 17:57 34.71256 32.90867 7511 ft 116 kts
2026-04-29 17:58 34.72057 32.90982 7512 ft 117 kts
2026-04-29 17:58 34.72873 32.91097 7510 ft 117 kts
2026-04-29 17:58 34.73689 32.91214 7508 ft 117 kts
2026-04-29 17:58 34.74507 32.91331 7516 ft 117 kts
2026-04-29 17:59 34.75315 32.91446 7518 ft 118 kts
2026-04-29 17:59 34.76140 32.91565 7514 ft 118 kts
2026-04-29 17:59 34.76944 32.91736 7503 ft 117 kts 25°
2026-04-29 17:59 34.77491 32.92422 7509 ft 114 kts 67°
2026-04-29 18:00 34.77662 32.93369 7514 ft 114 kts 81°
2026-04-29 18:00 34.77755 32.94329 7515 ft 114 kts 83°
2026-04-29 18:00 34.77831 32.95283 7515 ft 114 kts 83°
2026-04-29 18:00 34.77901 32.96240 7518 ft 114 kts 84°
2026-04-29 18:01 34.77965 32.97202 7520 ft 114 kts 84°
2026-04-29 18:01 34.78025 32.98176 7517 ft 115 kts 85°
2026-04-29 18:01 34.77967 32.99140 7508 ft 116 kts 112°
2026-04-29 18:01 34.77406 32.99817 7510 ft 117 kts 154°
2026-04-29 18:02 34.76603 33.00000 7519 ft 118 kts 173°
2026-04-29 18:02 34.75778 33.00064 7513 ft 119 kts 174°
2026-04-29 18:02 34.74961 33.00171 7507 ft 117 kts 157°
2026-04-29 18:02 34.74404 33.00839 7515 ft 114 kts 110°
2026-04-29 18:03 34.74334 33.01785 7520 ft 114 kts 86°
2026-04-29 18:03 34.74395 33.02753 7511 ft 115 kts 84°
2026-04-29 18:03 34.74552 33.03705 7508 ft 116 kts 61°
2026-04-29 18:03 34.75190 33.04280 7517 ft 117 kts 14°
2026-04-29 18:04 34.76009 33.04298 7525 ft 118 kts 356°
2026-04-29 18:04 34.76819 33.04206 7541 ft 117 kts 354°
2026-04-29 18:04 34.77642 33.04107 7543 ft 118 kts 355°
2026-04-29 18:04 34.78411 33.04362 7536 ft 116 kts 37°
2026-04-29 18:05 34.78827 33.05173 7540 ft 115 kts 76°
2026-04-29 18:05 34.78936 33.06133 7548 ft 115 kts 84°
2026-04-29 18:05 34.79007 33.07103 7550 ft 115 kts 84°
2026-04-29 18:05 34.79077 33.08086 7552 ft 116 kts 84°
2026-04-29 18:06 34.79145 33.09054 7550 ft 116 kts 84°
2026-04-29 18:06 34.79194 33.10043 7543 ft 116 kts 95°
2026-04-29 18:06 34.78812 33.10880 7540 ft 116 kts 139°
2026-04-29 18:06 34.78055 33.11173 7542 ft 118 kts 181°
2026-04-29 18:07 34.77312 33.10755 7540 ft 120 kts 224°
2026-04-29 18:07 34.76989 33.09839 7537 ft 121 kts 266°
2026-04-29 18:07 34.77246 33.08892 7536 ft 121 kts 308°
2026-04-29 18:07 34.77967 33.08390 7538 ft 119 kts 352°
2026-04-29 18:08 34.78748 33.08604 7535 ft 116 kts 34°
2026-04-29 18:08 34.79190 33.09402 7541 ft 114 kts 75°
2026-04-29 18:08 34.79298 33.10344 7547 ft 114 kts 83°
2026-04-29 18:08 34.79362 33.11314 7551 ft 113 kts 84°
2026-04-29 18:09 34.79424 33.12268 7554 ft 114 kts 84°
2026-04-29 18:09 34.79488 33.13233 7554 ft 114 kts 84°
2026-04-29 18:09 34.79553 33.14192 7551 ft 115 kts 84°
2026-04-29 18:09 34.79621 33.15162 7551 ft 115 kts 84°
2026-04-29 18:10 34.79943 33.16025 7553 ft 115 kts 43°
2026-04-29 18:10 34.80700 33.16332 7553 ft 118 kts 356°
2026-04-29 18:10 34.81425 33.15875 7557 ft 121 kts 310°
2026-04-29 18:10 34.81676 33.14919 7559 ft 122 kts 264°
2026-04-29 18:11 34.81311 33.14032 7558 ft 120 kts 219°
2026-04-29 18:11 34.80544 33.13720 7560 ft 117 kts 173°
2026-04-29 18:11 34.79845 33.14162 7559 ft 114 kts 127°
2026-04-29 18:11 34.79623 33.15069 7559 ft 113 kts 89°
2026-04-29 18:12 34.79660 33.16027 7553 ft 114 kts 85°
2026-04-29 18:12 34.79719 33.16983 7491 ft 113 kts 85°
2026-04-29 18:12 34.79779 33.17933 7344 ft 112 kts 85°
2026-04-29 18:12 34.79840 33.18883 7191 ft 113 kts 85°
2026-04-29 18:13 34.79905 33.19835 7041 ft 112 kts 85°
2026-04-29 18:13 34.79975 33.20789 6894 ft 113 kts 85°
2026-04-29 18:13 34.80048 33.21739 6750 ft 113 kts 85°
2026-04-29 18:13 34.80125 33.22683 6609 ft 113 kts 85°
2026-04-29 18:14 34.80207 33.23634 6464 ft 113 kts 85°
2026-04-29 18:14 34.80291 33.24591 6316 ft 114 kts 84°
2026-04-29 18:14 34.80376 33.25551 6167 ft 114 kts 84°
2026-04-29 18:14 34.80458 33.26508 6022 ft 114 kts 85°
2026-04-29 18:15 34.80539 33.27478 5875 ft 114 kts 84°
2026-04-29 18:15 34.80614 33.28422 5728 ft 113 kts 84°
2026-04-29 18:15 34.80685 33.29373 5575 ft 113 kts 84°
2026-04-29 18:15 34.80755 33.30327 5424 ft 113 kts 85°
2026-04-29 18:16 34.80830 33.31286 5268 ft 113 kts 84°
2026-04-29 18:16 34.80903 33.32231 5118 ft 113 kts 85°
2026-04-29 18:16 34.80972 33.33186 4966 ft 114 kts 84°
2026-04-29 18:16 34.81042 33.34144 4816 ft 113 kts 85°
2026-04-29 18:17 34.81113 33.35111 4668 ft 113 kts 85°
2026-04-29 18:17 34.81184 33.36062 4522 ft 113 kts 85°
2026-04-29 18:17 34.81258 33.37009 4370 ft 113 kts 84°
2026-04-29 18:17 34.81336 33.37974 4213 ft 114 kts 85°
2026-04-29 18:18 34.81424 33.38936 4064 ft 114 kts 85°
2026-04-29 18:18 34.81515 33.39895 3918 ft 114 kts 84°
2026-04-29 18:18 34.81603 33.40850 3765 ft 113 kts 85°
2026-04-29 18:18 34.81692 33.41810 3612 ft 113 kts 84°
2026-04-29 18:19 34.81775 33.42754 3462 ft 113 kts 84°
2026-04-29 18:19 34.81852 33.43715 3309 ft 112 kts 85°
2026-04-29 18:19 34.81931 33.44657 3157 ft 113 kts 85°
2026-04-29 18:19 34.82020 33.45614 3006 ft 115 kts 84°
2026-04-29 18:20 34.82105 33.46588 2857 ft 115 kts 84°
2026-04-29 18:20 34.82183 33.47557 2706 ft 116 kts 84°
2026-04-29 18:20 34.82258 33.48535 2557 ft 117 kts 84°
2026-04-29 18:20 34.82327 33.49526 2403 ft 117 kts 84°
2026-04-29 18:21 34.82394 33.50526 2249 ft 118 kts 84°
2026-04-29 18:21 34.82458 33.51519 2095 ft 119 kts 84°
2026-04-29 18:21 34.82521 33.52527 1951 ft 119 kts 83°
2026-04-29 18:21 34.82661 33.53489 1883 ft 115 kts 80°
2026-04-29 18:22 34.82779 33.54462 1773 ft 114 kts 81°
2026-04-29 18:22 34.82877 33.55421 1691 ft 113 kts 83°
2026-04-29 18:22 34.82926 33.56362 1637 ft 111 kts 78°
2026-04-29 18:22 34.83231 33.57247 1498 ft 113 kts 51°
2026-04-29 18:23 34.83787 33.57814 1531 ft 100 kts
2026-04-29 18:23 34.84453 33.57807 1543 ft 94 kts 352°
2026-04-29 18:23 34.85103 33.57790 1564 ft 92 kts 354°
2026-04-29 18:23 34.85740 33.57780 1574 ft 91 kts 354°
2026-04-29 18:24 34.86376 33.57779 1574 ft 93 kts 356°
2026-04-29 18:24 34.86988 33.58001 1670 ft 93 kts 44°
2026-04-29 18:24 34.87388 33.58668 1682 ft 101 kts 50°
2026-04-29 18:24 34.87957 33.59099 1719 ft 97 kts 356°
2026-04-29 18:25 34.88504 33.58739 1738 ft 93 kts 295°
2026-04-29 18:25 34.88462 33.58001 1708 ft 91 kts 234°
2026-04-29 18:25 34.87869 33.57743 1634 ft 100 kts 174°
2026-04-29 18:25 34.87339 33.58259 1601 ft 103 kts 110°
2026-04-29 18:26 34.87507 33.59067 1563 ft 100 kts 39°
2026-04-29 18:26 34.88076 33.59508 1591 ft 92 kts 33°
2026-04-29 18:26 34.88555 33.59999 1625 ft 88 kts 36°
2026-04-29 18:26 34.89070 33.60498 1544 ft 96 kts 37°
2026-04-29 18:27 34.89578 33.61040 1521 ft 97 kts 36°
2026-04-29 18:27 34.90091 33.61579 1471 ft 99 kts 39°
2026-04-29 18:27 34.90586 33.62152 1474 ft 96 kts 40°
2026-04-29 18:27 34.91072 33.62694 1471 ft 94 kts 37°
2026-04-29 18:28 34.91582 33.63200 1468 ft 96 kts 36°
2026-04-29 18:28 34.92107 33.63725 1466 ft 97 kts 36°
2026-04-29 18:28 34.92631 33.64219 1497 ft 94 kts 35°
2026-04-29 18:28 34.93140 33.64714 1542 ft 91 kts 37°
2026-04-29 18:29 34.93427 33.65362 1569 ft 90 kts 90°
2026-04-29 18:29 34.93079 33.65953 1553 ft 87 kts 164°
2026-04-29 18:29 34.92484 33.66180 1347 ft 90 kts 168°
2026-04-29 18:29 34.91893 33.66345 1159 ft 83 kts 176°
2026-04-29 18:30 34.91323 33.66399 961 ft 80 kts 187°
2026-04-29 18:30 34.90758 33.66257 832 ft 85 kts 202°
2026-04-29 18:30 34.90260 33.65909 738 ft 79 kts 224°
2026-04-29 18:30 34.89864 33.65431 585 ft 80 kts 229°
2026-04-29 18:31 34.89463 33.64957 442 ft 79 kts 227°
2026-04-29 18:31 34.89082 33.64476 313 ft 78 kts 227°
2026-04-29 18:31 34.88707 33.64027 197 ft 73 kts 228°
2026-04-29 18:31 34.88380 33.63625 111 ft 58 kts 226°
2026-04-29 18:32 34.88107 33.63291 30 ft 54 kts 224°
2026-04-29 18:32 34.87619 33.62691 66 ft 62 kts 223°
2026-04-29 18:32 34.87295 33.62291 245 ft 68 kts 225°
2026-04-29 18:33 34.86958 33.61869 437 ft 71 kts 223°
2026-04-29 18:33 34.86594 33.61438 610 ft 76 kts 224°
2026-04-29 18:33 34.86208 33.60972 782 ft 80 kts 225°
2026-04-29 18:33 34.85823 33.60463 945 ft 83 kts 239°
2026-04-29 18:34 34.85741 33.59766 1097 ft 87 kts 280°
2026-04-29 18:34 34.85934 33.59318 1200 ft 90 kts 305°
2026-04-29 18:34 34.86545 33.58618 1414 ft 92 kts 321°
2026-04-29 18:34 34.87195 33.58438 1502 ft 104 kts
2026-04-29 18:35 34.87872 33.58845 1512 ft 116 kts 43°
2026-04-29 18:35 34.88329 33.59694 1521 ft 121 kts 51°
2026-04-29 18:35 34.88932 33.60438 1521 ft 123 kts 40°
2026-04-29 18:35 34.89575 33.61144 1520 ft 125 kts 40°
2026-04-29 18:36 34.90220 33.61857 1520 ft 124 kts 40°
2026-04-29 18:36 34.90864 33.62571 1520 ft 124 kts 40°
2026-04-29 18:36 34.91500 33.63279 1519 ft 124 kts 40°
2026-04-29 18:36 34.92136 33.63989 1519 ft 123 kts 40°
2026-04-29 18:37 34.92768 33.64697 1519 ft 123 kts 40°
2026-04-29 18:37 34.93406 33.65406 1518 ft 123 kts 40°
2026-04-29 18:37 34.94044 33.66113 1520 ft 123 kts 40°
2026-04-29 18:37 34.94680 33.66820 1520 ft 123 kts 40°
2026-04-29 18:38 34.95314 33.67525 1521 ft 123 kts 40°
2026-04-29 18:38 34.95945 33.68227 1522 ft 123 kts 40°
2026-04-29 18:38 34.96584 33.68937 1523 ft 123 kts 40°
2026-04-29 18:38 34.97212 33.69638 1522 ft 123 kts 40°
2026-04-29 18:39 34.97858 33.70363 1522 ft 124 kts 40°
2026-04-29 18:39 34.98494 33.71073 1520 ft 124 kts 40°
2026-04-29 18:39 34.99138 33.71797 1518 ft 125 kts 40°
2026-04-29 18:39 34.99782 33.72517 1524 ft 125 kts 40°
2026-04-29 18:40 35.00415 33.73231 1571 ft 121 kts 41°
2026-04-29 18:40 35.00955 33.73929 1441 ft 106 kts 50°
2026-04-29 18:40 35.01409 33.74630 1126 ft 106 kts 54°
2026-04-29 18:40 35.01900 33.75192 949 ft 89 kts
2026-04-29 18:41 35.02333 33.73771 631 ft 59 kts 256°
2026-04-29 18:41 35.02195 33.73317 527 ft 56 kts 245°
2026-04-29 18:42 35.02016 33.72890 453 ft 58 kts 239°
2026-04-29 18:42 35.01821 33.72453 374 ft 59 kts 239°
2026-04-29 18:42 35.01619 33.72013 293 ft 54 kts 242°
2026-04-29 18:42 35.01443 33.71632 295 ft 65 kts 236°
2026-04-29 18:43 35.01206 33.71119 427 ft 75 kts 237°
2026-04-29 18:43 35.00877 33.70583 565 ft 83 kts 229°
2026-04-29 18:43 35.00480 33.70060 760 ft 83 kts 208°
2026-04-29 18:43 34.99916 33.70245 906 ft 96 kts 131°
2026-04-29 18:44 34.99749 33.71049 1021 ft 104 kts 92°
2026-04-29 18:44 34.99726 33.71949 1146 ft 107 kts 90°
2026-04-29 18:44 34.99748 33.72859 1270 ft 109 kts 85°
2026-04-29 18:44 34.99799 33.73786 1388 ft 110 kts 89°
2026-04-29 18:45 34.99805 33.74726 1498 ft 111 kts 89°
2026-04-29 18:45 34.99810 33.75704 1524 ft 118 kts 89°
2026-04-29 18:45 34.99814 33.76728 1525 ft 122 kts 89°
2026-04-29 18:45 34.99819 33.77777 1527 ft 124 kts 89°
2026-04-29 18:46 34.99825 33.78834 1525 ft 126 kts 89°
2026-04-29 18:46 34.99834 33.79907 1522 ft 126 kts 90°
2026-04-29 18:46 34.99842 33.80985 1522 ft 127 kts 90°
2026-04-29 18:46 34.99850 33.82068 1521 ft 127 kts 90°
2026-04-29 18:47 34.99858 33.83136 1520 ft 127 kts 90°
2026-04-29 18:47 34.99866 33.84210 1520 ft 127 kts 90°
2026-04-29 18:47 34.99874 33.85293 1519 ft 127 kts 90°
2026-04-29 18:47 34.99883 33.86376 1522 ft 127 kts 90°
2026-04-29 18:48 34.99887 33.86982 1521 ft 127 kts 89°
2026-04-29 18:48 34.99896 33.88065 1520 ft 127 kts 89°
2026-04-29 18:48 34.99904 33.89150 1521 ft 126 kts 90°
2026-04-29 18:48 34.99927 33.90225 1523 ft 127 kts 82°
2026-04-29 18:49 35.00371 33.91115 1526 ft 125 kts 36°
2026-04-29 18:49 35.01150 33.91584 1527 ft 124 kts 15°
2026-04-29 18:49 35.01974 33.91867 1523 ft 124 kts 10°
2026-04-29 18:49 35.02826 33.92089 1523 ft 124 kts
2026-04-29 18:50 35.03672 33.92274 1523 ft 123 kts
2026-04-29 18:50 35.04528 33.92443 1523 ft 123 kts
2026-04-29 18:50 35.05378 33.92602 1521 ft 123 kts
2026-04-29 18:50 35.06231 33.92757 1521 ft 123 kts
2026-04-29 18:51 35.07097 33.92913 1521 ft 123 kts
2026-04-29 18:51 35.07947 33.93065 1521 ft 124 kts
2026-04-29 18:51 35.08803 33.93218 1521 ft 124 kts
2026-04-29 18:51 35.09659 33.93371 1521 ft 124 kts
2026-04-29 18:52 35.10514 33.93523 1521 ft 124 kts
2026-04-29 18:52 35.11371 33.93677 1521 ft 124 kts
2026-04-29 18:52 35.12234 33.93770 1519 ft 121 kts 347°
2026-04-29 18:52 35.13009 33.93408 1521 ft 119 kts 328°
2026-04-29 18:53 35.13739 33.92919 1521 ft 118 kts 326°
2026-04-29 18:53 35.14450 33.92420 1519 ft 118 kts 325°
2026-04-29 18:53 35.15165 33.91911 1520 ft 118 kts 325°
2026-04-29 18:53 35.15871 33.91407 1520 ft 118 kts 325°
2026-04-29 18:54 35.16580 33.90899 1521 ft 118 kts 325°
2026-04-29 18:54 35.17295 33.90388 1522 ft 117 kts 325°
2026-04-29 18:54 35.18001 33.89881 1520 ft 117 kts 325°
2026-04-29 18:54 35.18702 33.89377 1520 ft 117 kts 325°
2026-04-29 18:55 35.19409 33.88869 1521 ft 117 kts 325°
2026-04-29 18:55 35.20114 33.88364 1522 ft 117 kts 325°
2026-04-29 18:55 35.20821 33.87855 1520 ft 117 kts 325°
2026-04-29 18:55 35.21534 33.87344 1520 ft 117 kts 325°
2026-04-29 18:56 35.22240 33.86837 1519 ft 118 kts 325°
2026-04-29 18:56 35.22950 33.86326 1521 ft 117 kts 325°
2026-04-29 18:56 35.23467 33.85616 1525 ft 113 kts 286°
2026-04-29 18:56 35.23603 33.84671 1524 ft 112 kts 272°
2026-04-29 18:57 35.23644 33.83715 1522 ft 112 kts 270°
2026-04-29 18:57 35.23664 33.82760 1548 ft 110 kts 268°
2026-04-29 18:57 35.23651 33.81840 1561 ft 110 kts 266°
2026-04-29 18:57 35.23613 33.80864 1425 ft 116 kts 266°
2026-04-29 18:58 35.23589 33.79910 1224 ft 103 kts 268°
2026-04-29 18:58 35.23580 33.79079 1044 ft 95 kts 268°
2026-04-29 18:58 35.23570 33.78289 923 ft 90 kts 268°
2026-04-29 18:58 35.23570 33.77539 825 ft 86 kts 270°
2026-04-29 18:59 35.23577 33.76806 694 ft 85 kts 270°
2026-04-29 18:59 35.23586 33.76154 617 ft 64 kts 266°
2026-04-29 18:59 35.23576 33.75623 527 ft 63 kts 267°
2026-04-29 18:59 35.23574 33.75089 439 ft 62 kts 265°
2026-04-29 19:00 35.23572 33.74552 340 ft 62 kts 270°
2026-04-29 19:00 35.23582 33.74036 251 ft 60 kts 267°
2026-04-29 19:00 35.23584 33.73532 177 ft 59 kts 267°
2026-04-29 19:00 35.23591 33.73057 142 ft 46 kts 269°
2026-04-29 19:01 35.23593 33.72620 151 ft 66 kts 265°
2026-04-29 19:01 35.23604 33.72017 266 ft 78 kts 267°
2026-04-29 19:01 35.23590 33.71359 501 ft 74 kts 264°
2026-04-29 19:01 35.23578 33.70739 758 ft 65 kts 266°
2026-04-29 19:02 35.23548 33.70145 899 ft 75 kts 263°
2026-04-29 19:02 35.23499 33.69473 1030 ft 83 kts 262°
2026-04-29 19:02 35.23445 33.68731 1152 ft 89 kts 263°
2026-04-29 19:02 35.23389 33.67968 1275 ft 92 kts 263°
2026-04-29 19:03 35.23329 33.67186 1395 ft 94 kts 263°
2026-04-29 19:03 35.23154 33.66423 1505 ft 96 kts 233°
2026-04-29 19:03 35.22533 33.66025 1535 ft 108 kts 192°
2026-04-29 19:03 35.21753 33.65988 1531 ft 115 kts 181°
2026-04-29 19:04 35.20937 33.66052 1528 ft 118 kts 178°
2026-04-29 19:04 35.20112 33.66158 1526 ft 120 kts 176°
2026-04-29 19:04 35.19278 33.66285 1524 ft 120 kts 175°
2026-04-29 19:04 35.18444 33.66427 1524 ft 121 kts 174°
2026-04-29 19:05 35.17605 33.66600 1524 ft 120 kts 172°
2026-04-29 19:05 35.16790 33.66800 1528 ft 120 kts 170°
2026-04-29 19:05 35.15965 33.66935 1525 ft 119 kts 176°
2026-04-29 19:05 35.15141 33.67047 1526 ft 118 kts 176°
2026-04-29 19:06 35.14342 33.67016 1516 ft 112 kts 203°
2026-04-29 19:06 35.13790 33.66391 1520 ft 108 kts 240°
2026-04-29 19:06 35.13162 33.64745 1527 ft 107 kts 246°
2026-04-29 19:07 35.12865 33.63925 1567 ft 104 kts 247°
2026-04-29 19:07 35.12670 33.63390 1606 ft 102 kts 247°
2026-04-29 19:07 35.12288 33.62367 1667 ft 97 kts 246°
2026-04-29 19:07 35.12005 33.61616 1672 ft 98 kts 246°
2026-04-29 19:08 35.11897 33.60806 1630 ft 97 kts 278°
2026-04-29 19:08 35.12070 33.60006 1565 ft 97 kts 287°
2026-04-29 19:08 35.12301 33.59229 1474 ft 96 kts 290°
2026-04-29 19:08 35.12548 33.58464 1370 ft 97 kts 290°
2026-04-29 19:09 35.12803 33.57694 1251 ft 98 kts 290°
2026-04-29 19:09 35.13063 33.56919 1125 ft 99 kts 290°
2026-04-29 19:09 35.13325 33.56130 995 ft 100 kts 290°
2026-04-29 19:09 35.13591 33.55334 863 ft 101 kts 290°
2026-04-29 19:10 35.13835 33.54617 731 ft 83 kts 291°
2026-04-29 19:10 35.14030 33.54052 664 ft 60 kts 291°
2026-04-29 19:10 35.14186 33.53607 597 ft 57 kts 284°
2026-04-29 19:10 35.14338 33.53143 571 ft 59 kts 286°
2026-04-29 19:11 35.14498 33.52667 497 ft 60 kts 288°
2026-04-29 19:11 35.14650 33.52194 418 ft 59 kts 287°
2026-04-29 19:11 35.14785 33.51775 400 ft 45 kts 291°
2026-04-29 19:11 35.14901 33.51423 400 ft 43 kts 291°
2026-04-29 19:12 35.15010 33.51089 400 ft 41 kts 292°
2026-04-29 19:12 35.15113 33.50782 400 ft 26 kts 288°
2026-04-29 19:12 35.15021 33.50647 400 ft 24 kts 200°
2026-04-29 19:12 35.14979 33.50559 400 ft 20 kts 292°
2026-04-29 19:13 35.15063 33.50307 400 ft 27 kts 295°
2026-04-29 19:13 35.15140 33.50077 400 ft 30 kts 288°
2026-04-29 19:13 35.15220 33.49825 400 ft 32 kts 295°
2026-04-29 19:13 35.15286 33.49625 400 ft 15 kts 265°
2026-04-29 19:14 35.15229 33.49571 400 ft 7 kts 204°
2026-04-29 19:14 35.15212 33.49563 400 ft 0 kts 202°